| time (UTC) | temp C | wind direction | speed KPH | gust KPH | rain 1hr cm | rain 24hr cm | rain mn cm | humidity % | barometer mb |
| 20260906224523 | 17 | 335 | 0.0 | 0.0 | 0.00 | 0.10 | 0.00 | 80 | 910.2 |
| 20260906223023 | 17 | 300 | 0.0 | 0.0 | 0.00 | 0.10 | 0.00 | 81 | 910.2 |
| 20260906221520 | 17 | 309 | 0.0 | 0.0 | 0.00 | 0.10 | 0.00 | 81 | 910.2 |
| 20260906220020 | 17 | 321 | 0.0 | 0.0 | 0.00 | 0.10 | 0.00 | 81 | 910.2 |
| 20260906214517 | 17 | 335 | 0.0 | 0.0 | 0.00 | 0.10 | 0.00 | 81 | 910.1 |
| 20260906213016 | 17 | 326 | 0.0 | 0.0 | 0.00 | 0.10 | 0.00 | 80 | 910.1 |
| 20260906211515 | 17 | 317 | 0.0 | 0.0 | 0.00 | 0.10 | 0.00 | 79 | 910.2 |
| 20260906210015 | 17 | 44 | 0.0 | 0.0 | 0.00 | 0.10 | 0.00 | 80 | 910.3 |
| 20260906204600 | 17 | 322 | 0.0 | 0.0 | 0.00 | 0.10 | 0.00 | 79 | 910.2 |
| 20260906203053 | 17 | 313 | 0.0 | 0.0 | 0.00 | 0.10 | 0.00 | 80 | 910.3 |
| 20260906201542 | 17 | 33 | 0.0 | 0.0 | 0.00 | 0.10 | 0.00 | 80 | 910.3 |
| 20260906200033 | 17 | 64 | 0.0 | 0.0 | 0.00 | 0.10 | 0.00 | 80 | 910.3 |
| 20260906194517 | 17 | 28 | 0.0 | 0.0 | 0.00 | 0.10 | 0.10 | 82 | 910.4 |
| 20260906193013 | 16 | 34 | 0.0 | 0.0 | 0.00 | 0.10 | 0.10 | 83 | 910.4 |
| 20260906191510 | 16 | 15 | 0.0 | 0.0 | 0.00 | 0.10 | 0.10 | 83 | 910.4 |
| 20260906190004 | 15 | 27 | 0.0 | 0.0 | 0.00 | 0.10 | 0.10 | 85 | 910.7 |
| 20260906184611 | 15 | 34 | 0.0 | 0.0 | 0.00 | 0.10 | 0.10 | 85 | 911.0 |
| 20260906183104 | 15 | 345 | 0.0 | 0.0 | 0.00 | 0.10 | 0.10 | 87 | 911.1 |
| 20260906181556 | 13 | 303 | 0.0 | 0.0 | 0.00 | 0.10 | 0.10 | 88 | 911.4 |
| 20260906180104 | 13 | 319 | 0.0 | 0.0 | 0.00 | 0.10 | 0.10 | 89 | 912.0 |
| 20260906174531 | 13 | 330 | 0.0 | 0.0 | 0.00 | 0.10 | 0.10 | 90 | 912.2 |
| 20260906173027 | 13 | 319 | 0.0 | 0.0 | 0.00 | 0.10 | 0.10 | 90 | 912.4 |
| 20260906171522 | 13 | 321 | 0.0 | 0.0 | 0.00 | 0.10 | 0.10 | 91 | 912.5 |
| 20260906170017 | 13 | 13 | 0.0 | 0.0 | 0.00 | 0.10 | 0.10 | 93 | 912.5 |
| 20260906164512 | 12 | 340 | 0.0 | 0.0 | 0.00 | 0.10 | 0.10 | 92 | 912.6 |
| 20260906163008 | 13 | 322 | 0.0 | 0.0 | 0.00 | 0.10 | 0.10 | 91 | 912.5 |
| 20260906161503 | 13 | 311 | 0.0 | 0.0 | 0.00 | 0.10 | 0.10 | 90 | 912.7 |
| 20260906160059 | 13 | 303 | 0.0 | 0.0 | 0.00 | 0.10 | 0.10 | 90 | 912.9 |
| 20260906154554 | 13 | 271 | 0.0 | 0.0 | 0.08 | 0.10 | 0.10 | 91 | 913.0 |
| 20260906153041 | 15 | 332 | 0.0 | 0.0 | 0.08 | 0.10 | 0.10 | 91 | 912.8 |
| 20260906151527 | 15 | 330 | 0.0 | 0.0 | 0.08 | 0.10 | 0.10 | 93 | 912.6 |
| 20260906150013 | 14 | 335 | 0.0 | 0.0 | 0.08 | 0.10 | 0.10 | 93 | 912.3 |
| 20260906144511 | 14 | 322 | 0.0 | 0.0 | 0.00 | 0.03 | 0.03 | 92 | 913.1 |
| 20260906143006 | 14 | 293 | 0.0 | 0.0 | 0.00 | 0.03 | 0.03 | 93 | 913.0 |
| 20260906141502 | 13 | 268 | 0.0 | 0.0 | 0.00 | 0.03 | 0.03 | 94 | 912.8 |
| 20260906140058 | 13 | 319 | 0.0 | 0.0 | 0.00 | 0.03 | 0.03 | 94 | 912.6 |
| 20260906134553 | 13 | 308 | 0.0 | 0.0 | 0.00 | 0.03 | 0.03 | 94 | 912.6 |
| 20260906133057 | 12 | 313 | 0.0 | 0.0 | 0.00 | 0.03 | 0.03 | 93 | 912.5 |
| 20260906131559 | -17 | 0.0 | 0.0 | 0.00 | 0.03 | 0.03 | 912.7 | ||
| 20260906130028 | -17 | 0.0 | 0.0 | 0.00 | 0.03 | 0.03 | 912.5 | ||
| 20260906124524 | -17 | 0.0 | 0.0 | 0.00 | 0.03 | 0.03 | 912.8 | ||
| 20260906123023 | -17 | 0.0 | 0.0 | 0.00 | 0.03 | 0.03 | 912.9 | ||
| 20260906121531 | -67 | 314 | 0.0 | 0.0 | 0.00 | 0.03 | 0.03 | 94 | 913.0 |
| 20260906120012 | 13 | 314 | 0.0 | 0.0 | 0.00 | 0.03 | 0.03 | 93 | 912.9 |
| 20260906114520 | 13 | 316 | 0.0 | 0.0 | 0.00 | 0.03 | 0.03 | 93 | 913.0 |
| 20260906113011 | 13 | 45 | 0.0 | 0.0 | 0.00 | 0.03 | 0.03 | 93 | 912.8 |
| 20260906111510 | 13 | 42 | 0.0 | 0.0 | 0.00 | 0.03 | 0.03 | 93 | 912.9 |
| 20260906110051 | 13 | 34 | 0.0 | 0.0 | 0.00 | 0.03 | 0.03 | 93 | 912.8 |
| 20260906104552 | 12 | 36 | 0.0 | 0.0 | 0.00 | 0.03 | 0.03 | 93 | 913.0 |
| 20260906103046 | 12 | 37 | 0.0 | 0.0 | 0.00 | 0.03 | 0.03 | 93 | 913.1 |
| 20260906101539 | 12 | 37 | 0.0 | 0.0 | 0.00 | 0.03 | 0.03 | 94 | 913.1 |
| 20260906100038 | 12 | 354 | 0.0 | 0.0 | 0.00 | 0.03 | 0.03 | 93 | 913.1 |
| 20260906094542 | 12 | 319 | 0.0 | 0.0 | 0.00 | 0.03 | 0.03 | 93 | 913.3 |
| 20260906093036 | 12 | 324 | 0.0 | 0.0 | 0.00 | 0.03 | 0.03 | 93 | 913.6 |
| 20260906091536 | 12 | 311 | 0.0 | 0.0 | 0.00 | 0.03 | 0.03 | 93 | 913.6 |
| 20260906090038 | 12 | 310 | 0.0 | 0.0 | 0.00 | 0.03 | 0.03 | 93 | 913.7 |
| 20260906084531 | 12 | 315 | 0.0 | 0.0 | 0.00 | 0.03 | 0.03 | 92 | 913.8 |
| 20260906083019 | 12 | 18 | 0.0 | 0.0 | 0.00 | 0.03 | 0.03 | 92 | 913.8 |
| 20260906081522 | 12 | 320 | 0.0 | 0.0 | 0.00 | 0.03 | 0.03 | 92 | 913.9 |
| 20260906080023 | 12 | 320 | 0.0 | 0.0 | 0.00 | 0.03 | 0.03 | 92 | 913.9 |
| 20260906074517 | 12 | 317 | 0.0 | 0.0 | 0.00 | 0.03 | 0.03 | 92 | 914.2 |
| 20260906073017 | 12 | 341 | 0.0 | 0.0 | 0.00 | 0.03 | 0.03 | 91 | 914.3 |
| 20260906071524 | 13 | 311 | 0.0 | 0.0 | 0.00 | 0.03 | 0.03 | 91 | 914.6 |
| 20260906070013 | 13 | 323 | 0.0 | 0.0 | 0.00 | 0.03 | 0.03 | 90 | 914.9 |
| 20260906064513 | 13 | 319 | 0.0 | 0.0 | 0.00 | 0.03 | 0.03 | 89 | 914.9 |
| 20260906063100 | 13 | 334 | 0.0 | 0.0 | 0.00 | 0.03 | 0.03 | 89 | 914.7 |
| 20260906061600 | 13 | 335 | 0.0 | 0.0 | 0.00 | 0.03 | 0.03 | 89 | 914.7 |
| 20260906060134 | 13 | 15 | 0.0 | 0.0 | 0.00 | 0.03 | 0.03 | 89 | 914.6 |
| 20260906054611 | 13 | 317 | 0.0 | 0.0 | 0.00 | 0.03 | 0.03 | 91 | 914.7 |
| 20260906053057 | 13 | 323 | 0.0 | 0.0 | 0.00 | 0.03 | 0.03 | 91 | 914.7 |
| 20260906051558 | 13 | 293 | 0.0 | 0.0 | 0.00 | 0.03 | 0.03 | 90 | 915.3 |
| 20260906050054 | 13 | 316 | 0.0 | 0.0 | 0.03 | 0.03 | 0.03 | 90 | 914.3 |
| 20260906044552 | 13 | 320 | 0.0 | 0.0 | 0.03 | 0.03 | 0.03 | 89 | 914.0 |
| 20260906043039 | 13 | 312 | 0.0 | 0.0 | 0.03 | 0.03 | 0.03 | 87 | 914.0 |
| 20260906041536 | 13 | 325 | 0.0 | 0.0 | 0.03 | 0.03 | 0.03 | 84 | 914.3 |
| 20260906040035 | 15 | 331 | 0.0 | 0.0 | 0.00 | 0.00 | 0.00 | 75 | 914.1 |
| 20260906034550 | 15 | 314 | 0.0 | 0.0 | 0.00 | 0.00 | 0.00 | 77 | 914.4 |
| 20260906033031 | 15 | 336 | 0.0 | 0.0 | 0.00 | 0.00 | 0.00 | 76 | 913.7 |
| 20260906031529 | 15 | 337 | 0.0 | 0.0 | 0.00 | 0.00 | 0.00 | 75 | 913.5 |
| 20260906030024 | 15 | 328 | 0.0 | 0.0 | 0.00 | 0.00 | 0.00 | 73 | 913.4 |
| 20260906024519 | 15 | 315 | 0.0 | 0.0 | 0.00 | 0.00 | 0.00 | 72 | 913.1 |
| 20260906023006 | 15 | 332 | 0.0 | 0.0 | 0.00 | 0.00 | 0.00 | 71 | 913.0 |
| 20260906021505 | 16 | 79 | 0.0 | 0.0 | 0.00 | 0.00 | 0.00 | 70 | 913.1 |
| 20260906020002 | 16 | 328 | 0.0 | 0.0 | 0.00 | 0.00 | 0.00 | 68 | 913.1 |
| 20260906014602 | 16 | 316 | 0.0 | 0.0 | 0.00 | 0.00 | 0.00 | 67 | 913.1 |
| 20260906013057 | 17 | 346 | 0.0 | 0.0 | 0.00 | 0.00 | 0.00 | 66 | 912.8 |
| 20260906011555 | 17 | 347 | 0.0 | 0.0 | 0.00 | 0.00 | 0.00 | 65 | 912.9 |
| 20260906010128 | 17 | 328 | 0.0 | 0.0 | 0.00 | 0.00 | 0.00 | 63 | 913.0 |
| 20260906004605 | 18 | 338 | 0.0 | 0.0 | 0.00 | 0.00 | 0.00 | 62 | 912.7 |
| 20260906003028 | 18 | 321 | 0.0 | 0.0 | 0.00 | 0.00 | 0.00 | 61 | 912.7 |
| 20260906001542 | 18 | 311 | 0.0 | 0.0 | 0.00 | 0.00 | 0.00 | 60 | 912.9 |
| 20260906000011 | 20 | 307 | 0.0 | 0.0 | 0.00 | 0.00 | 0.00 | 57 | 913.0 |
| 20260905234508 | 21 | 323 | 0.0 | 0.0 | 0.00 | 0.00 | 0.00 | 52 | 913.0 |
| 20260905233005 | 21 | 324 | 0.0 | 0.0 | 0.00 | 0.00 | 0.00 | 50 | 912.8 |
| 20260905231511 | 21 | 321 | 0.0 | 0.0 | 0.00 | 0.00 | 0.00 | 49 | 912.7 |
| 20260905230002 | 22 | 322 | 0.0 | 0.0 | 0.00 | 0.00 | 0.00 | 45 | 912.6 |